Back to catalog

STARLINK-37805

AliveCommunicationsVLEO
NORAD 100290·PAYLOAD·🇺🇸 United States

Launched Aug 11, 2026 from Cape Canaveral Space Force Station

Loading…

Next Passes (next 24 hours)

TLE

StaleSource: Space-Track

Epoch: Sep 10, 2026, 06:52 UTC

1 A0290U 26183U   26253.28656138  .00258748  00000-0  16783-2 0  9999
2 A0290  53.1590 307.4238 0006520 306.3191  53.7227 15.74701730  4701

Track STARLINK-37805 in real time with AllMySat

Download on the App Store